Retour au catalogue

YAOGAN-39 02A

ActifMilitaireVLEO
NORAD 57886·PAYLOAD·🇨🇳 China

Lancé Sep 17, 2023 depuis Xichang Satellite Launch Center

Loading…

Prochains Passages (prochaines 24 heures)

TLE

FraisSource: Space-Track

Époque: Sep 14, 2026, 14:39 UTC

1 57886U 23145A   26257.61096046  .00008026  00000-0  33356-3 0  9992
2 57886  35.0052 358.0897 0002061  40.1134 319.9733 15.23080386166816

Suivez YAOGAN-39 02A en temps réel avec AllMySat

Download on the App Store